#timestamp,LO_Frequency,Hit,StdDev 
1502006415.8,286047000.5,P,0.4
1502006435.7,286047001.0,N,0.4
1502006455.5,286047001.0,N,0.3
1502006475.4,286047000.3,N,0.4
1502006495.2,286047000.9,N,0.4
1502006515.0,286047000.5,N,0.4
1502006515.9,286047000.5,N,0.3
1502006535.8,286046998.5,Y,0.0
1502006555.6,286046999.6,P,0.6
1502006575.5,286046999.3,N,0.6
1502006595.3,286046997.2,P,1.3
1502006615.1,286046999.2,N,1.1
1502006635.9,286046999.6,N,1.1
1502006655.7,286046997.2,N,1.2
1502006675.5,286046999.3,N,1.1
1502006695.4,286046999.1,N,1.1
1502006715.2,286046999.3,N,1.0
1502006735.1,286046998.4,N,1.0
1502006736.0,286046998.4,N,1.0
1502006755.8,286047001.2,N,1.1
1502006775.6,286047000.9,N,1.2
1502006795.5,286047000.9,N,1.2
1502006815.3,286047000.9,N,1.2
1502006835.2,286047000.5,N,1.2
1502006855.9,286047002.8,N,1.4
1502006875.7,286047000.1,N,1.4
1502006895.6,286047001.6,N,1.4
1502006915.4,286046999.8,N,1.4
1502006935.3,286047001.2,N,1.4
1502006955.1,286047000.6,N,1.3
1502006956.0,286047000.6,N,1.3
1502006975.8,286047000.9,N,1.3
1502006995.7,286047000.4,N,1.3
1502007015.5,286047000.4,N,1.3
1502007035.3,286047001.0,N,1.2
1502007055.2,286047000.8,N,1.2
1502007075.0,286047001.0,N,1.2
1502007075.9,286047001.0,N,1.2
1502007095.8,286047000.5,N,1.2
1502007115.6,286047000.1,N,1.2
1502007135.4,286047000.0,N,1.1
1502007155.3,286047000.1,N,1.1
1502007175.1,286046999.7,N,1.1
1502007195.9,286047002.7,N,1.0
1502007215.7,286047002.2,N,1.0
1502007235.5,286047002.0,N,1.0
1502007255.4,286047002.5,N,1.0
1502007275.2,286047002.2,N,1.0
1502007295.1,286047002.5,N,0.9
1502007296.0,286047002.5,N,0.9
1502007315.8,286047001.3,N,0.9
1502007335.6,286047001.7,N,0.9
1502007355.5,286047004.3,Y,0.0
1502007375.3,286047001.7,P,0.3
1502007395.2,286047002.2,P,0.4
1502007415.0,286047000.2,N,0.7
1502007415.9,286047000.2,N,0.8
1502007435.7,286047000.2,N,0.8
1502007455.6,286047000.5,N,0.8
1502007475.4,286047001.0,N,0.7
1502007495.3,286047001.0,N,0.7
1502007515.1,286046998.2,N,1.0
1502007535.8,286046998.7,N,1.1
1502007555.7,286046998.4,N,1.2
1502007575.5,286046998.8,N,1.2
1502007595.4,286046999.3,N,1.2
1502007615.2,286046999.6,N,1.2
1502007635.0,286046996.6,N,1.4
1502007635.9,286046996.6,N,1.6
1502007655.8,286046996.9,N,1.7
1502007675.6,286046997.1,N,1.7
1502007695.5,286046997.7,N,1.7
1502007715.3,286046996.9,N,1.7
1502007735.1,286046997.5,N,1.7
1502007755.9,286046995.3,N,1.9
1502007775.7,286046996.2,N,1.9
1502007795.6,286046996.4,N,1.9
1502007815.4,286046995.6,N,2.0
1502007835.2,286046995.6,N,2.0
1502007855.1,286046996.2,N,2.0
1502007856.0,286046996.2,N,2.0
1502007875.8,286046996.0,N,2.0
1502007895.7,286046995.9,N,2.0
1502007915.5,286046996.4,N,1.9
1502007935.3,286046994.5,N,1.8
1502007955.2,286046994.4,Y,0.0
1502007975.0,286046994.9,P,1.4
1502007975.9,286046994.9,P,1.3
1502007995.8,286046995.2,P,1.2
1502008015.6,286046995.5,Y,0.0
1502008035.4,286047000.8,P,2.6
1502008055.3,286046998.8,N,2.1
1502008075.1,286046998.8,N,1.8
1502008095.9,286046998.3,N,1.6
1502008115.7,286046998.4,N,1.5
1502008135.5,286046999.0,N,1.4
1502008155.4,286046998.3,N,1.3
1502008175.2,286046998.6,N,1.2
1502008195.0,286046998.3,N,1.2
1502008196.0,286046998.3,N,1.1
1502008215.8,286046999.4,N,1.1
1502008235.6,286046999.4,N,1.1
1502008255.5,286046999.5,N,1.1
1502008275.3,286046996.9,N,1.1
1502008295.1,286046997.3,N,1.1
1502008315.9,286046997.3,N,1.1
1502008335.7,286046997.2,N,1.1
1502008355.6,286682705.0,Y,0.0
1502008375.4,286046998.1,P,0.1
1502008395.3,286046998.1,P,0.1
1502008415.1,286046999.5,P,0.6
1502008416.0,286046999.5,N,0.7
1502008435.8,286046998.4,N,0.6
1502008455.7,286046999.3,N,0.6
1502008475.5,286046998.9,N,0.6
1502008495.4,286046998.5,N,0.5
1502008515.2,286046998.4,Y,0.0
1502008535.0,286047000.4,P,0.8
1502008535.9,286047000.4,N,0.8
1502008555.8,286046999.8,N,0.7
1502008575.6,286047001.0,N,0.8
1502008595.5,286047000.0,N,0.7
1502008615.3,286047000.4,N,0.7
1502008635.1,286046998.5,N,0.8
1502008655.9,286046998.1,N,1.0
1502008675.7,286046998.1,N,1.0
1502008695.5,286046998.4,N,1.0
1502008715.4,286046998.9,N,1.0
1502008735.2,286046998.3,N,1.0
1502008755.1,286046998.7,N,1.0
1502008756.0,286046998.7,N,1.0
1502008775.8,286046999.4,N,0.9
1502008795.6,286046998.7,N,0.9
1502008815.5,286046998.3,N,0.9
1502008835.3,286046998.7,N,0.9
1502008855.2,286047000.8,N,0.9
1502008875.9,286046998.3,N,0.9
1502008895.7,286046999.3,N,0.9
1502008915.6,286046998.6,N,0.9
1502008935.4,286046999.1,N,0.9
1502008955.3,286046998.9,N,0.9
1502008975.1,286046998.3,N,0.9
1502008976.0,286046998.3,N,0.9
1502008995.8,286046999.3,N,0.8
1502009015.7,286046996.9,Y,0.0
1502009035.5,286046998.2,P,0.4
1502009055.4,286046998.3,P,0.4
1502009075.2,286047000.9,N,1.1
1502009095.0,286047001.1,N,1.3
1502009095.9,286047001.1,N,1.3
1502009115.8,286046998.7,N,1.2
1502009135.6,286046999.0,N,1.2
1502009155.5,286046999.2,N,1.1
1502009175.3,286046998.5,N,1.1
1502009195.1,286046998.6,N,1.1
1502009215.9,286046998.5,N,1.1
1502009235.7,286046998.5,N,1.0
1502009255.6,286047000.7,N,1.1
1502009275.4,286046998.2,N,1.1
1502009295.2,286047000.8,N,1.1
1502009315.1,286047001.1,N,1.2
1502009316.0,286047001.1,N,1.2
1502009335.8,286047000.7,N,1.2
1502009355.7,286047000.7,N,1.2
1502009375.5,286047001.2,N,1.2
1502009395.3,286046998.4,N,1.2
1502009415.2,286047000.9,N,1.2
1502009435.0,286047000.5,N,1.2
1502009435.9,286047000.5,N,1.2
1502009455.8,286047000.9,N,1.2
1502009475.6,286047001.0,N,1.2
1502009495.4,286047000.7,N,1.2
1502009515.3,286047001.2,N,1.2
1502009535.1,286047001.1,N,1.2
1502009555.9,286047000.8,N,1.2
1502009575.7,286047001.0,N,1.1
1502009595.5,286047000.4,N,1.1
1502009615.4,286046999.7,N,1.1
1502009635.2,286047001.2,N,1.1
1502009655.0,286047000.3,N,1.0
1502009655.9,286047000.3,N,1.0
1502009675.8,286047001.2,N,1.0
1502009695.6,286047001.1,N,1.0
1502009715.5,286047000.7,N,0.9
1502009735.3,286046998.6,N,0.9
1502009755.1,286047001.0,N,0.9
1502009775.9,286047000.9,N,0.8
1502009795.7,286047002.4,N,0.9
1502009815.6,286047001.8,N,0.8
1502009835.4,286047004.2,Y,0.0
1502009855.2,286047001.3,P,0.3
1502009875.1,286047002.6,P,0.8
1502009876.0,286047002.6,P,0.8
1502009895.8,286047002.6,Y,0.0
1502009915.7,286047000.9,P,0.5
1502009935.5,286047000.0,N,0.7
1502009955.3,286047000.5,N,0.7
1502009975.2,286047000.7,N,0.6
1502009995.0,286047000.2,N,0.6
1502009995.9,286047000.2,N,0.6
